| time (UTC) | temp C | wind direction | speed KPH | gust KPH | rain 1hr cm | rain 24hr cm | rain mn cm | humidity % | barometer mb |
| 20260504214822 | 16 | 270 | 9.7 | 12.9 | 0.00 | 0.00 | 0.00 | 72 | 1014.2 |
| 20260504214320 | 16 | 274 | 6.4 | 14.5 | 0.00 | 0.00 | 0.00 | 70 | 1014.3 |
| 20260504213816 | 16 | 317 | 9.7 | 16.1 | 0.00 | 0.00 | 0.00 | 69 | 1014.3 |
| 20260504213312 | 16 | 262 | 9.7 | 12.9 | 0.00 | 0.00 | 0.00 | 71 | 1014.4 |
| 20260504212810 | 16 | 303 | 6.4 | 12.9 | 0.00 | 0.00 | 0.00 | 70 | 1014.5 |
| 20260504212306 | 17 | 286 | 9.7 | 14.5 | 0.00 | 0.00 | 0.00 | 68 | 1014.4 |
| 20260504211804 | 16 | 233 | 3.2 | 14.5 | 0.00 | 0.00 | 0.00 | 69 | 1014.4 |
| 20260504211259 | 17 | 274 | 4.8 | 9.7 | 0.00 | 0.00 | 0.00 | 65 | 1014.4 |
| 20260504210757 | 17 | 257 | 4.8 | 9.7 | 0.00 | 0.00 | 0.00 | 65 | 1014.4 |
| 20260504210254 | 17 | 279 | 8.0 | 9.7 | 0.00 | 0.00 | 0.00 | 65 | 1014.4 |
| 20260504205751 | 17 | 270 | 4.8 | 8.0 | 0.00 | 0.00 | 0.00 | 65 | 1014.4 |
| 20260504205249 | 16 | 288 | 8.0 | 11.3 | 0.00 | 0.00 | 0.00 | 65 | 1014.3 |
| 20260504204747 | 17 | 344 | 9.7 | 12.9 | 0.00 | 0.00 | 0.00 | 66 | 1014.5 |
| 20260504204245 | 17 | 288 | 4.8 | 11.3 | 0.00 | 0.00 | 0.00 | 66 | 1014.3 |
| 20260504203744 | 17 | 267 | 3.2 | 8.0 | 0.00 | 0.00 | 0.00 | 65 | 1014.3 |
| 20260504203241 | 17 | 233 | 6.4 | 9.7 | 0.00 | 0.00 | 0.00 | 64 | 1014.4 |
| 20260504202741 | 17 | 261 | 1.6 | 9.7 | 0.00 | 0.00 | 0.00 | 65 | 1014.5 |
| 20260504202238 | 17 | 263 | 4.8 | 4.8 | 0.00 | 0.00 | 0.00 | 62 | 1014.3 |
| 20260504201735 | 17 | 261 | 4.8 | 9.7 | 0.00 | 0.00 | 0.00 | 63 | 1014.4 |
| 20260504201232 | 17 | 258 | 3.2 | 9.7 | 0.00 | 0.00 | 0.00 | 64 | 1014.3 |
| 20260504200730 | 17 | 293 | 4.8 | 11.3 | 0.00 | 0.00 | 0.00 | 65 | 1014.3 |
| 20260504200226 | 17 | 245 | 4.8 | 9.7 | 0.00 | 0.00 | 0.00 | 65 | 1014.4 |
| 20260504195722 | 17 | 243 | 3.2 | 9.7 | 0.00 | 0.00 | 0.00 | 64 | 1014.5 |
| 20260504195219 | 17 | 306 | 6.4 | 12.9 | 0.00 | 0.00 | 0.00 | 60 | 1014.5 |
| 20260504194716 | 17 | 269 | 3.2 | 8.0 | 0.00 | 0.00 | 0.00 | 59 | 1014.3 |
| 20260504194212 | 18 | 335 | 8.0 | 11.3 | 0.00 | 0.00 | 0.00 | 60 | 1014.5 |
| 20260504193708 | 17 | 312 | 6.4 | 9.7 | 0.00 | 0.00 | 0.00 | 61 | 1014.5 |
| 20260504193206 | 17 | 250 | 4.8 | 11.3 | 0.00 | 0.00 | 0.00 | 61 | 1014.4 |
| 20260504192704 | 17 | 310 | 8.0 | 9.7 | 0.00 | 0.00 | 0.00 | 58 | 1014.3 |
| 20260504192202 | 17 | 296 | 6.4 | 11.3 | 0.00 | 0.00 | 0.00 | 62 | 1014.5 |
| 20260504191700 | 20 | 305 | 9.7 | 16.1 | 0.00 | 0.00 | 0.00 | 58 | 1014.4 |
| 20260504191156 | 20 | 346 | 9.7 | 12.9 | 0.00 | 0.00 | 0.00 | 57 | 1014.2 |
| 20260504190651 | 20 | 354 | 12.9 | 16.1 | 0.00 | 0.00 | 0.00 | 54 | 1014.2 |
| 20260504190149 | 21 | 16 | 11.3 | 12.9 | 0.00 | 0.00 | 0.00 | 52 | 1014.2 |
| 20260504185645 | 21 | 326 | 9.7 | 11.3 | 0.00 | 0.00 | 0.00 | 52 | 1014.2 |
| 20260504185142 | 21 | 349 | 6.4 | 11.3 | 0.00 | 0.00 | 0.00 | 55 | 1014.2 |
| 20260504184638 | 20 | 20 | 9.7 | 11.3 | 0.00 | 0.00 | 0.00 | 54 | 1014.0 |
| 20260504184133 | 20 | 14 | 6.4 | 9.7 | 0.00 | 0.00 | 0.00 | 54 | 1014.1 |
| 20260504183630 | 20 | 10 | 8.0 | 9.7 | 0.00 | 0.00 | 0.00 | 57 | 1014.1 |
| 20260504183128 | 20 | 354 | 9.7 | 12.9 | 0.00 | 0.00 | 0.00 | 57 | 1014.4 |
| 20260504182626 | 20 | 17 | 8.0 | 12.9 | 0.00 | 0.00 | 0.00 | 56 | 1014.4 |
| 20260504182123 | 20 | 0 | 8.0 | 11.3 | 0.00 | 0.00 | 0.00 | 55 | 1014.1 |
| 20260504181620 | 19 | 359 | 8.0 | 12.9 | 0.00 | 0.00 | 0.00 | 56 | 1014.5 |
| 20260504181117 | 20 | 350 | 9.7 | 11.3 | 0.00 | 0.00 | 0.00 | 55 | 1014.5 |
| 20260504180617 | 20 | 19 | 9.7 | 11.3 | 0.00 | 0.00 | 0.00 | 55 | 1014.5 |
| 20260504180115 | 19 | 352 | 11.3 | 12.9 | 0.00 | 0.00 | 0.00 | 56 | 1014.3 |
| 20260504175612 | 20 | 28 | 11.3 | 12.9 | 0.00 | 0.00 | 0.00 | 55 | 1014.6 |
| 20260504175108 | 20 | 331 | 4.8 | 8.0 | 0.00 | 0.00 | 0.00 | 56 | 1014.4 |
| 20260504174607 | 20 | 299 | 6.4 | 11.3 | 0.00 | 0.00 | 0.00 | 57 | 1014.2 |
| 20260504174103 | 19 | 15 | 8.0 | 11.3 | 0.00 | 0.00 | 0.00 | 56 | 1014.5 |
| 20260504173600 | 19 | 359 | 8.0 | 12.9 | 0.00 | 0.00 | 0.00 | 57 | 1014.4 |
| 20260504173058 | 18 | 7 | 8.0 | 11.3 | 0.00 | 0.00 | 0.00 | 58 | 1014.5 |
| 20260504172553 | 18 | 339 | 11.3 | 14.5 | 0.00 | 0.00 | 0.00 | 57 | 1014.4 |
| 20260504172050 | 18 | 349 | 8.0 | 14.5 | 0.00 | 0.00 | 0.00 | 57 | 1014.4 |
| 20260504171547 | 19 | 22 | 12.9 | 12.9 | 0.00 | 0.00 | 0.00 | 57 | 1014.5 |
| 20260504171044 | 19 | 1 | 6.4 | 11.3 | 0.00 | 0.00 | 0.00 | 57 | 1014.5 |
| 20260504170539 | 18 | 354 | 8.0 | 9.7 | 0.00 | 0.00 | 0.00 | 56 | 1014.6 |
| 20260504150924 | 20 | 326 | 3.2 | 4.8 | 0.00 | 0.00 | 0.00 | 47 | 1013.9 |
| 20260504150420 | 20 | 193 | 0.0 | 3.2 | 0.00 | 0.00 | 0.00 | 46 | 1013.9 |
| 20260504140847 | 17 | 248 | 3.2 | 8.0 | 0.00 | 0.00 | 0.00 | 51 | 1013.5 |
| 20260504140343 | 16 | 240 | 4.8 | 4.8 | 0.00 | 0.00 | 0.00 | 52 | 1013.5 |
| 20260504130812 | 15 | 224 | 8.0 | 9.7 | 0.00 | 0.00 | 0.00 | 55 | 1013.1 |
| 20260504130308 | 15 | 217 | 8.0 | 11.3 | 0.00 | 0.00 | 0.00 | 55 | 1013.2 |
| 20260504120231 | 13 | 218 | 4.8 | 8.0 | 0.00 | 0.00 | 0.00 | 68 | 1013.0 |
| 20260504110659 | 13 | 196 | 3.2 | 3.2 | 0.00 | 0.00 | 0.00 | 69 | 1012.9 |
| 20260504110155 | 13 | 195 | 3.2 | 3.2 | 0.00 | 0.00 | 0.00 | 69 | 1013.0 |
| 20260504100119 | 14 | 192 | 1.6 | 3.2 | 0.00 | 0.00 | 0.00 | 59 | 1012.8 |
| 20260504081512 | 17 | 227 | 9.7 | 11.3 | 0.00 | 0.00 | 0.00 | 44 | 1012.6 |
| 20260504081008 | 18 | 229 | 9.7 | 12.9 | 0.00 | 0.00 | 0.00 | 45 | 1012.6 |
| 20260504080504 | 17 | 238 | 11.3 | 12.9 | 0.00 | 0.00 | 0.00 | 44 | 1012.6 |
| 20260504050306 | 18 | 233 | 4.8 | 4.8 | 0.00 | 0.00 | 0.00 | 47 | 1013.3 |
| 20260504045803 | 19 | 269 | 1.6 | 3.2 | 0.00 | 0.00 | 0.00 | 44 | 1013.4 |
| 20260504045304 | 20 | 268 | 1.6 | 3.2 | 0.00 | 0.00 | 0.00 | 41 | 1013.2 |
| 20260504044800 | 20 | 240 | 1.6 | 3.2 | 0.00 | 0.00 | 0.00 | 41 | 1013.3 |
| 20260504044257 | 20 | 232 | 6.4 | 8.0 | 0.00 | 0.00 | 0.00 | 41 | 1013.3 |
| 20260504043754 | 20 | 223 | 3.2 | 4.8 | 0.00 | 0.00 | 0.00 | 41 | 1013.2 |
| 20260504043251 | 20 | 212 | 4.8 | 4.8 | 0.00 | 0.00 | 0.00 | 42 | 1013.2 |
| 20260504042749 | 20 | 210 | 3.2 | 3.2 | 0.00 | 0.00 | 0.00 | 42 | 1013.1 |
| 20260504042245 | 20 | 192 | 3.2 | 3.2 | 0.00 | 0.00 | 0.00 | 38 | 1013.2 |
| 20260504041741 | 20 | 184 | 1.6 | 1.6 | 0.00 | 0.00 | 0.00 | 39 | 1013.2 |
| 20260504041237 | 21 | 136 | 3.2 | 8.0 | 0.00 | 0.00 | 0.00 | 37 | 1013.1 |
| 20260504040734 | 23 | 265 | 1.6 | 1.6 | 0.00 | 0.00 | 0.00 | 30 | 1013.1 |
| 20260504040232 | 23 | 266 | 1.6 | 1.6 | 0.00 | 0.00 | 0.00 | 30 | 1013.0 |
| 20260504035727 | 23 | 265 | 0.0 | 1.6 | 0.00 | 0.00 | 0.00 | 29 | 1013.1 |
| 20260504035225 | 23 | 265 | 0.0 | 1.6 | 0.00 | 0.00 | 0.00 | 29 | 1012.9 |
| 20260504034722 | 23 | 265 | 0.0 | 1.6 | 0.00 | 0.00 | 0.00 | 29 | 1012.9 |
| 20260504034219 | 23 | 265 | 0.0 | 1.6 | 0.00 | 0.00 | 0.00 | 29 | 1013.0 |
| 20260504033717 | 23 | 265 | 0.0 | 1.6 | 0.00 | 0.00 | 0.00 | 29 | 1012.8 |
| 20260504033214 | 23 | 265 | 0.0 | 1.6 | 0.00 | 0.00 | 0.00 | 29 | 1012.8 |
| 20260504032711 | 23 | 264 | 0.0 | 1.6 | 0.00 | 0.00 | 0.00 | 29 | 1012.9 |
| 20260504032208 | 23 | 262 | 0.0 | 1.6 | 0.00 | 0.00 | 0.00 | 29 | 1012.9 |
| 20260504031705 | 23 | 280 | 1.6 | 1.6 | 0.00 | 0.00 | 0.00 | 29 | 1012.9 |
| 20260504031201 | 23 | 272 | 1.6 | 1.6 | 0.00 | 0.00 | 0.00 | 30 | 1013.0 |
| 20260504030658 | 23 | 280 | 1.6 | 3.2 | 0.00 | 0.00 | 0.00 | 30 | 1013.1 |
| 20260504030155 | 23 | 275 | 1.6 | 3.2 | 0.00 | 0.00 | 0.00 | 30 | 1013.0 |
| 20260504025651 | 23 | 331 | 4.8 | 8.0 | 0.00 | 0.00 | 0.00 | 31 | 1012.9 |
| 20260504025148 | 23 | 263 | 1.6 | 1.6 | 0.00 | 0.00 | 0.00 | 29 | 1013.1 |
| 20260504024646 | 23 | 263 | 1.6 | 1.6 | 0.00 | 0.00 | 0.00 | 30 | 1013.0 |
| 20260504024142 | 24 | 240 | 1.6 | 3.2 | 0.00 | 0.00 | 0.00 | 33 | 1013.0 |
| 20260504023639 | 24 | 247 | 1.6 | 4.8 | 0.00 | 0.00 | 0.00 | 32 | 1013.0 |
| 20260504023135 | 24 | 224 | 4.8 | 8.0 | 0.00 | 0.00 | 0.00 | 31 | 1013.1 |
| 20260504022631 | 25 | 247 | 4.8 | 8.0 | 0.00 | 0.00 | 0.00 | 29 | 1013.2 |
| 20260504022127 | 25 | 254 | 1.6 | 8.0 | 0.00 | 0.00 | 0.00 | 31 | 1013.3 |
| 20260504021626 | 25 | 251 | 1.6 | 8.0 | 0.00 | 0.00 | 0.00 | 29 | 1013.2 |
| 20260504021121 | 25 | 246 | 3.2 | 4.8 | 0.00 | 0.00 | 0.00 | 30 | 1013.4 |
| 20260504020619 | 25 | 238 | 4.8 | 8.0 | 0.00 | 0.00 | 0.00 | 31 | 1013.4 |
| 20260504020115 | 25 | 248 | 3.2 | 3.2 | 0.00 | 0.00 | 0.00 | 31 | 1013.5 |
| 20260504015611 | 25 | 252 | 3.2 | 8.0 | 0.00 | 0.00 | 0.00 | 31 | 1013.4 |
| 20260504015107 | 26 | 286 | 3.2 | 3.2 | 0.00 | 0.00 | 0.00 | 29 | 1013.5 |
| 20260504014604 | 26 | 255 | 1.6 | 3.2 | 0.00 | 0.00 | 0.00 | 30 | 1013.7 |
| 20260504014101 | 25 | 253 | 1.6 | 3.2 | 0.00 | 0.00 | 0.00 | 29 | 1013.7 |
| 20260504013558 | 25 | 248 | 3.2 | 4.8 | 0.00 | 0.00 | 0.00 | 30 | 1013.5 |
| 20260504013055 | 25 | 245 | 4.8 | 8.0 | 0.00 | 0.00 | 0.00 | 31 | 1013.7 |
| 20260504012553 | 25 | 233 | 6.4 | 9.7 | 0.00 | 0.00 | 0.00 | 28 | 1013.8 |
| 20260504012050 | 25 | 235 | 8.0 | 9.7 | 0.00 | 0.00 | 0.00 | 29 | 1013.7 |
| 20260504011547 | 26 | 239 | 3.2 | 9.7 | 0.00 | 0.00 | 0.00 | 30 | 1013.7 |
| 20260504011043 | 25 | 273 | 1.6 | 3.2 | 0.00 | 0.00 | 0.00 | 30 | 1013.9 |
| 20260504010539 | 25 | 291 | 3.2 | 4.8 | 0.00 | 0.00 | 0.00 | 32 | 1013.9 |
| 20260504010035 | 25 | 1 | 4.8 | 4.8 | 0.00 | 0.00 | 0.00 | 33 | 1013.9 |
| 20260504005532 | 25 | 289 | 1.6 | 3.2 | 0.00 | 0.00 | 0.00 | 34 | 1014.1 |
| 20260504005030 | 25 | 21 | 3.2 | 4.8 | 0.00 | 0.00 | 0.00 | 35 | 1014.1 |
| 20260504004527 | 24 | 255 | 1.6 | 8.0 | 0.00 | 0.00 | 0.00 | 34 | 1014.2 |
| 20260504004024 | 24 | 330 | 6.4 | 9.7 | 0.00 | 0.00 | 0.00 | 35 | 1014.2 |
| 20260504003520 | 24 | 318 | 4.8 | 8.0 | 0.00 | 0.00 | 0.00 | 35 | 1014.4 |
| 20260504003017 | 25 | 335 | 6.4 | 8.0 | 0.00 | 0.00 | 0.00 | 33 | 1014.5 |
| 20260504002514 | 24 | 352 | 4.8 | 8.0 | 0.00 | 0.00 | 0.00 | 33 | 1014.5 |
| 20260504002012 | 24 | 342 | 6.4 | 9.7 | 0.00 | 0.00 | 0.00 | 37 | 1014.5 |
| 20260504001509 | 24 | 345 | 4.8 | 9.7 | 0.00 | 0.00 | 0.00 | 35 | 1014.6 |
| 20260504001005 | 24 | 330 | 8.0 | 11.3 | 0.00 | 0.00 | 0.00 | 35 | 1014.7 |
| 20260504000503 | 24 | 332 | 6.4 | 9.7 | 0.00 | 0.00 | 0.00 | 34 | 1014.5 |
| 20260503235959 | 24 | 347 | 6.4 | 11.3 | 0.00 | 0.00 | 0.00 | 36 | 1014.6 |
| 20260503235458 | 24 | 1 | 9.7 | 11.3 | 0.00 | 0.00 | 0.00 | 35 | 1014.6 |
| 20260503234954 | 24 | 321 | 6.4 | 9.7 | 0.00 | 0.00 | 0.00 | 35 | 1014.6 |
| 20260503234452 | 24 | 350 | 4.8 | 8.0 | 0.00 | 0.00 | 0.00 | 36 | 1014.7 |
| 20260503233950 | 24 | 1 | 6.4 | 9.7 | 0.00 | 0.00 | 0.00 | 38 | 1014.8 |
| 20260503233446 | 24 | 313 | 4.8 | 9.7 | 0.00 | 0.00 | 0.00 | 36 | 1014.7 |
| 20260503232942 | 24 | 344 | 6.4 | 8.0 | 0.00 | 0.00 | 0.00 | 37 | 1015.1 |
| 20260503232439 | 23 | 0 | 6.4 | 9.7 | 0.00 | 0.00 | 0.00 | 37 | 1015.0 |
| 20260503231937 | 23 | 321 | 8.0 | 9.7 | 0.00 | 0.00 | 0.00 | 37 | 1015.2 |
| 20260503231435 | 23 | 336 | 8.0 | 11.3 | 0.00 | 0.00 | 0.00 | 37 | 1015.1 |
| 20260503230931 | 23 | 19 | 6.4 | 11.3 | 0.00 | 0.00 | 0.00 | 37 | 1015.1 |
| 20260503230427 | 23 | 350 | 8.0 | 11.3 | 0.00 | 0.00 | 0.00 | 35 | 1015.2 |
| 20260503225925 | 23 | 348 | 6.4 | 8.0 | 0.00 | 0.00 | 0.00 | 36 | 1015.2 |
| 20260503225422 | 23 | 6 | 4.8 | 12.9 | 0.00 | 0.00 | 0.00 | 38 | 1015.4 |
| 20260503224917 | 23 | 358 | 8.0 | 11.3 | 0.00 | 0.00 | 0.00 | 34 | 1015.3 |
| 20260503224415 | 23 | 340 | 4.8 | 8.0 | 0.00 | 0.00 | 0.00 | 41 | 1015.4 |
| 20260503223912 | 23 | 347 | 4.8 | 8.0 | 0.00 | 0.00 | 0.00 | 40 | 1015.6 |
| 20260503223410 | 22 | 308 | 4.8 | 8.0 | 0.00 | 0.00 | 0.00 | 47 | 1015.7 |
| 20260503222910 | 21 | 333 | 4.8 | 8.0 | 0.00 | 0.00 | 0.00 | 48 | 1015.7 |
| 20260503222409 | 22 | 10 | 4.8 | 9.7 | 0.00 | 0.00 | 0.00 | 49 | 1015.8 |
| 20260503221907 | 22 | 359 | 8.0 | 9.7 | 0.00 | 0.00 | 0.00 | 50 | 1015.9 |
| 20260503221405 | 22 | 326 | 4.8 | 4.8 | 0.00 | 0.00 | 0.00 | 48 | 1016.0 |
| 20260503220901 | 22 | 9 | 3.2 | 4.8 | 0.00 | 0.00 | 0.00 | 48 | 1015.9 |
| 20260503220358 | 21 | 332 | 6.4 | 8.0 | 0.00 | 0.00 | 0.00 | 49 | 1016.1 |
| 20260503215855 | 21 | 20 | 4.8 | 9.7 | 0.00 | 0.00 | 0.00 | 49 | 1016.2 |
| 20260503215352 | 21 | 4 | 8.0 | 9.7 | 0.00 | 0.00 | 0.00 | 48 | 1016.2 |